When you browse on this site, cookies collect data to enhance your experience and personalize the content and advertising you see.
Visit our Privacy Policy to learn more. By continuing to use the site, you agree to this use of cookies and data.
  • în România
  • Lista ţărilor
  • Pe 7 zile
  • Temperatura apei
  • Hartă satelitară
  • Meteo pe hartă
  • Widget-uri
  • user-avatar
    Intrare

    Meteo pe oră la Proschenoe

    Astăzi, 17 Noiembrie, Sâmbătă

    Timp Temperatura Precipitaţii Vânt Presiune Umiditate
    00:00 -2°C° 0 mm 1 m/s 766 mmHg 23%
    01:00 -2°C° 0 mm 1 m/s 766 mmHg 23%
    02:00 -2°C° 0 mm 1 m/s 765 mmHg 22%
    03:00 -2°C° 0 mm 1 m/s 765 mmHg 22%
    04:00 -2°C° 0 mm 1 m/s 765 mmHg 22%
    05:00 -2°C° 0 mm 1 m/s 764 mmHg 22%
    06:00 -2°C° 0 mm 1 m/s 764 mmHg 23%
    07:00 -2°C° 0 mm 1 m/s 764 mmHg 23%
    08:00 -2°C° 0 mm 1 m/s 763 mmHg 23%
    09:00 -4°C° 0 mm 2 m/s 764 mmHg 23%
    10:00 -3°C° 0 mm 2 m/s 763 mmHg 22%
    11:00 -2°C° 0 mm 3 m/s 763 mmHg 22%
    12:00 0°C° 0 mm 3 m/s 762 mmHg 21%
    13:00 0°C° 0 mm 3 m/s 762 mmHg 22%
    14:00 0°C° 0 mm 3 m/s 761 mmHg 24%
    15:00 0°C° 0 mm 3 m/s 760 mmHg 25%
    16:00 -2°C° 0 mm 4 m/s 759 mmHg 27%
    17:00 -2°C° 0 mm 4 m/s 759 mmHg 29%
    18:00 -3°C° 0 mm 4 m/s 758 mmHg 31%
    19:00 -3°C° 0 mm 4 m/s 757 mmHg 32%
    20:00 -3°C° 0 mm 4 m/s 757 mmHg 33%
    21:00 -4°C° 0 mm 5 m/s 756 mmHg 35%
    22:00 -4°C° 0 mm 5 m/s 755 mmHg 36%
    23:00 -4°C° 0 mm 5 m/s 755 mmHg 38%

    Mâine, 18 Noiembrie, Duminică

    Timp Temperatura Precipitaţii Vânt Presiune Umiditate
    00:00 -2°C° 0 mm 5 m/s 754 mmHg 39%
    01:00 -4°C° 0 mm 5 m/s 754 mmHg 43%
    02:00 -4°C° 0 mm 5 m/s 753 mmHg 47%
    03:00 -4°C° 0 mm 5 m/s 752 mmHg 51%
    04:00 -4°C° 0 mm 5 m/s 752 mmHg 52%
    05:00 -3°C° 0 mm 4 m/s 751 mmHg 53%
    06:00 -3°C° 0 mm 4 m/s 751 mmHg 54%
    07:00 -3°C° 0 mm 4 m/s 750 mmHg 57%
    08:00 -3°C° 0 mm 4 m/s 750 mmHg 60%
    09:00 -3°C° 0 mm 4 m/s 750 mmHg 63%
    10:00 -3°C° 0 mm 4 m/s 750 mmHg 66%
    11:00 -1°C° 0 mm 3 m/s 750 mmHg 69%
    12:00 -1°C° 0 mm 3 m/s 750 mmHg 73%
    13:00 -1°C° 0 mm 3 m/s 750 mmHg 75%
    14:00 -1°C° 0 mm 3 m/s 750 mmHg 77%
    15:00 -1°C° 0 mm 3 m/s 750 mmHg 78%
    16:00 -1°C° 0 mm 2 m/s 750 mmHg 81%
    17:00 -1°C° 0 mm 2 m/s 750 mmHg 83%
    18:00 -2°C° 0 mm 2 m/s 750 mmHg 85%
    19:00 -2°C° 0 mm 2 m/s 751 mmHg 87%
    20:00 0°C° 0 mm 1 m/s 751 mmHg 88%
    21:00 0°C° 0 mm 1 m/s 751 mmHg 89%
    22:00 0°C° 0 mm 1 m/s 751 mmHg 89%
    23:00 0°C° 0 mm 1 m/s 751 mmHg 90%

    Poimâine, 19 Noiembrie, Luni

    Timp Temperatura Precipitaţii Vânt Presiune Umiditate
    00:00 0°C° 0 mm 1 m/s 752 mmHg 90%
    01:00 0°C° 0 mm 1 m/s 752 mmHg 91%
    02:00 0°C° 0 mm 1 m/s 752 mmHg 91%
    03:00 0°C° 0 mm 1 m/s 752 mmHg 91%
    04:00 -1°C° 0 mm 0 m/s 753 mmHg 92%
    05:00 -1°C° 0 mm 0 m/s 753 mmHg 92%
    06:00 -1°C° 0 mm 0 m/s 753 mmHg 93%
    07:00 -1°C° 0 mm 0 m/s 754 mmHg 93%
    08:00 0°C° 0 mm 1 m/s 754 mmHg 93%
    09:00 0°C° 0 mm 1 m/s 754 mmHg 93%
    10:00 +1°C° 0 mm 1 m/s 755 mmHg 91%
    11:00 +1°C° 0 mm 1 m/s 755 mmHg 88%
    12:00 +2°C° 0 mm 1 m/s 755 mmHg 85%
    13:00 +2°C° 0 mm 1 m/s 756 mmHg 86%
    14:00 +2°C° 0 mm 1 m/s 756 mmHg 87%
    15:00 +2°C° 0 mm 1 m/s 756 mmHg 88%
    16:00 +1°C° 0 mm 1 m/s 756 mmHg 90%
    17:00 -2°C° 0 mm 2 m/s 756 mmHg 92%
    18:00 -2°C° 0 mm 2 m/s 756 mmHg 94%
    19:00 -2°C° 0 mm 2 m/s 756 mmHg 95%
    20:00 -2°C° 0 mm 2 m/s 756 mmHg 95%
    21:00 -3°C° 0 mm 2 m/s 756 mmHg 95%
    22:00 -2°C° 0 mm 2 m/s 757 mmHg 95%
    23:00 -2°C° 0 mm 2 m/s 757 mmHg 95%

    20 Noiembrie, Marţi

    Timp Temperatura Precipitaţii Vânt Presiune Umiditate
    00:00 -2°C° 0 mm 2 m/s 757 mmHg 95%
    01:00 -2°C° 0 mm 2 m/s 757 mmHg 95%
    02:00 -2°C° 0 mm 2 m/s 757 mmHg 95%
    03:00 -2°C° 0 mm 2 m/s 757 mmHg 95%
    04:00 -2°C° 0 mm 2 m/s 756 mmHg 95%
    05:00 -2°C° 0 mm 2 m/s 756 mmHg 96%
    06:00 -2°C° 0 mm 2 m/s 756 mmHg 96%
    07:00 -2°C° 0 mm 2 m/s 756 mmHg 95%
    08:00 -2°C° 0 mm 2 m/s 756 mmHg 95%
    09:00 -2°C° 0 mm 3 m/s 756 mmHg 94%
    10:00 -1°C° 0 mm 3 m/s 756 mmHg 91%
    11:00 -1°C° 0 mm 3 m/s 756 mmHg 88%
    12:00 -1°C° 0 mm 3 m/s 755 mmHg 84%
    13:00 -1°C° 0 mm 2 m/s 755 mmHg 84%
    14:00 -1°C° 0 mm 2 m/s 755 mmHg 83%
    15:00 -1°C° 0 mm 2 m/s 755 mmHg 82%
    16:00 -1°C° 0 mm 2 m/s 754 mmHg 83%
    17:00 -1°C° 0 mm 2 m/s 754 mmHg 84%
    18:00 -2°C° 0 mm 2 m/s 754 mmHg 84%
    19:00 -2°C° 0 mm 2 m/s 754 mmHg 85%
    20:00 0°C° 0 mm 1 m/s 754 mmHg 85%
    21:00 0°C° 0 mm 1 m/s 754 mmHg 85%
    22:00 0°C° 0 mm 1 m/s 754 mmHg 85%
    23:00 0°C° 0 mm 1 m/s 754 mmHg 84%

    21 Noiembrie, Miercuri

    Timp Temperatura Precipitaţii Vânt Presiune Umiditate
    00:00 0°C° 0 mm 1 m/s 753 mmHg 84%
    01:00 0°C° 0 mm 1 m/s 753 mmHg 84%
    02:00 0°C° 0 mm 1 m/s 753 mmHg 84%
    03:00 0°C° 0 mm 1 m/s 753 mmHg 83%
    04:00 -2°C° 0 mm 2 m/s 753 mmHg 84%
    05:00 -2°C° 0 mm 2 m/s 752 mmHg 84%
    06:00 -2°C° 0 mm 2 m/s 752 mmHg 84%
    07:00 -2°C° 0 mm 2 m/s 752 mmHg 83%
    08:00 -2°C° 0 mm 3 m/s 752 mmHg 82%
    09:00 -2°C° 0 mm 3 m/s 752 mmHg 82%
    10:00 -2°C° 0 mm 3 m/s 752 mmHg 79%
    11:00 -1°C° 0 mm 3 m/s 752 mmHg 76%
    12:00 -2°C° 0 mm 4 m/s 752 mmHg 73%
    13:00 -2°C° 0 mm 4 m/s 751 mmHg 73%
    14:00 -2°C° 0 mm 4 m/s 751 mmHg 73%
    15:00 -3°C° 0 mm 4 m/s 751 mmHg 73%
    16:00 -3°C° 0 mm 4 m/s 751 mmHg 75%
    17:00 -3°C° 0 mm 4 m/s 751 mmHg 77%
    18:00 -4°C° 0 mm 4 m/s 751 mmHg 79%
    19:00 -4°C° 0 mm 4 m/s 751 mmHg 79%
    20:00 -4°C° 0 mm 4 m/s 751 mmHg 80%
    21:00 -2°C° 0 mm 3 m/s 751 mmHg 80%
    22:00 -2°C° 0 mm 3 m/s 751 mmHg 82%
    23:00 -2°C° 0 mm 3 m/s 751 mmHg 84%

    22 Noiembrie, Joi

    Timp Temperatura Precipitaţii Vânt Presiune Umiditate
    00:00 -2°C° 0 mm 3 m/s 751 mmHg 85%
    01:00 -2°C° 0 mm 3 m/s 751 mmHg 86%
    02:00 -4°C° 0 mm 3 m/s 751 mmHg 86%
    03:00 -4°C° 0 mm 4 m/s 750 mmHg 87%
    04:00 -4°C° 0 mm 3 m/s 750 mmHg 86%
    05:00 -4°C° 0 mm 3 m/s 750 mmHg 85%
    06:00 -5°C° 0 mm 3 m/s 750 mmHg 84%
    07:00 -4°C° 0 mm 3 m/s 750 mmHg 83%
    08:00 -4°C° 0 mm 3 m/s 750 mmHg 82%
    09:00 -4°C° 0 mm 4 m/s 750 mmHg 82%
    10:00 -4°C° 0 mm 4 m/s 750 mmHg 78%
    11:00 -4°C° 0 mm 5 m/s 750 mmHg 74%
    12:00 -4°C° 0 mm 5 m/s 750 mmHg 70%
    13:00 -4°C° 0 mm 5 m/s 749 mmHg 70%
    14:00 -4°C° 0 mm 5 m/s 749 mmHg 71%
    15:00 -4°C° 0 mm 5 m/s 749 mmHg 72%
    16:00 -4°C° 0 mm 6 m/s 749 mmHg 74%
    17:00 -4°C° 0 mm 6 m/s 749 mmHg 76%
    18:00 -5°C° 0 mm 6 m/s 749 mmHg 79%
    19:00 -5°C° 0 mm 6 m/s 749 mmHg 79%
    20:00 -4°C° 0 mm 5 m/s 749 mmHg 79%
    21:00 -4°C° 0 mm 5 m/s 749 mmHg 80%
    22:00 -4°C° 0 mm 5 m/s 750 mmHg 81%
    23:00 -4°C° 0 mm 5 m/s 750 mmHg 82%
    Arată mai mult